Location: Fredericton
(45.9636°N, 66.6431°W)
Time: 21:38:00
(UTC-04:00)

ISS - Pass Details

Date: 01 November 2021
Orbit: 417 x 422 km, 51.6° (Epoch: 07 December)

Event Time Altitude Azimuth Distance (km) Brightness Sun altitude
Exits shadow 05:23:31 15° 50° (NE) 1,236 -0.8 -28.8°
Drops below altitude 10° 05:24:15 10° 56° (ENE) 1,502 -0.2 -28.7°
Sets 05:26:27 0° 66° (ENE) 2,365 1.2 -28.3°
